McNabs Island, Nova Scotia

Past 24 Hour Conditions

This table is a summary of hourly weather conditions for the past 24 hours. This summary includes the following parameters: temperature, humidity, dew point, wind speed and direction, air pressure, visibility and/or wind chill and humidex.
Date / Time
(ADT)
Conditions Temp (°C) Humidity (%) Dew Point (°C) Wind (km/h) Pressure (kPa) Vis (km) Humidex
02 September 2014
14:00 N/A 18   97 18 SSW 2 101.4 N/A *
13:00 N/A 19 96 19 ESE 9 101.5 N/A *
12:00 N/A 19 96 18 ESE 11 101.4 N/A *
11:00 N/A 19 96 18 E 8 101.5 N/A *
10:00 N/A 19 96 18 E 7 101.5 N/A *
9:00 N/A 18   96 17 WSW 3 101.5 N/A *
8:00 N/A 18   96 17 E 5 101.5 N/A *
7:00 N/A 18   96 17 E 6 101.5 N/A *
6:00 N/A 18   96 17 ENE 4 101.5 N/A *
5:00 N/A 18   96 17 ESE 7 101.5 N/A *
4:00 N/A 18   95 17 SE 8 101.5 N/A *
3:00 N/A 19 95 18 ENE 6 101.4 N/A *
2:00 N/A 18   95 17 SE 2 101.5 N/A *
1:00 N/A 19 90 17 SSE 12 101.5 N/A *
00:00 N/A 21 93 20 ENE 5 101.5 N/A 28
01 September 2014
23:00 N/A 20 94 19 E 3 101.5 N/A *
22:00 N/A 19 93 18 E 4 101.5 N/A *
21:00 N/A 20 93 19 E 2 101.5 N/A 27
20:00 N/A 20 91 19 calm 101.5 N/A 27
19:00 N/A 22 78 18 calm 101.4 N/A 28
18:00 N/A 25   71 20 NNW 6 101.4 N/A 33
17:00 N/A 24 83 20 E 3 101.4 N/A 31
16:00 N/A 22 88 20 ESE 7 101.3 N/A 29
15:00 N/A 24 77 19 SSE 7 101.3 N/A 31
14:00 N/A 21 82 18 SE 6 101.3 N/A 26
N/A
Not available
 ↑ 
Highest temperature
 ↓ 
Lowest temperature
*
Value not significant.

If you require additional historical weather information, please visit Climate Data Online.